Location: Haliburton Scout Reserve
(45.0900°N, 78.3200°W)
Time: 02:42:11
(UTC-04:00)

ESTCUBE 1 - Pass Details

Date: 22 May 2022
Orbit: 644 x 659 km, 97.9° (Epoch: 27 June)

Event Time Altitude Azimuth Distance (km) Brightness Sun altitude
Exits shadow 23:49:27 39° 221° (SW) 988 ? -21.8°
Maximum altitude 23:50:31 47° 261° (W) 872 ? -21.9°
Drops below altitude 10° 23:54:53 10° 335° (NNW) 2,068 ? -22.1°
Sets 23:57:10 0° 342° (NNW) 2,981 ? -22.3°
